Time,TemperatureF,DewpointF,PressureIn,WindDirection,WindDirectionDegrees,WindSpeedMPH,WindSpeedGustMPH,Humidity,HourlyPrecipIn,Conditions,Clouds,dailyrainin,SoftwareType,DateUTC
2013-07-16 00:01:00,61.0,52.0,29.80,South,169,0.0,-999.0,73,-99.99,,,-99.99,,2013-07-16 07:01:00,
2013-07-16 00:11:00,61.0,52.0,29.80,South,169,0.0,-999.0,73,-99.99,,,-99.99,,2013-07-16 07:11:00,
2013-07-16 00:22:00,60.0,52.0,29.81,SSE,155,0.0,-999.0,74,-99.99,,,-99.99,,2013-07-16 07:22:00,
2013-07-16 00:32:00,60.0,52.0,29.81,SSE,151,0.0,-999.0,76,-99.99,,,-99.99,,2013-07-16 07:32:00,
2013-07-16 00:43:00,59.0,52.0,29.81,SE,134,0.0,-999.0,78,-99.99,,,-99.99,,2013-07-16 07:43:00,
2013-07-16 00:52:00,59.0,52.0,29.81,SE,134,0.0,-999.0,78,-99.99,,,-99.99,,2013-07-16 07:52:00,
2013-07-16 01:01:00,59.0,52.0,29.80,SE,137,0.0,-999.0,79,-99.99,,,-99.99,,2013-07-16 08:01:00,
2013-07-16 01:11:00,59.0,52.0,29.80,SE,137,0.0,-999.0,79,-99.99,,,-99.99,,2013-07-16 08:11:00,
2013-07-16 01:22:00,59.0,53.0,29.81,SE,137,0.0,-999.0,80,-99.99,,,-99.99,,2013-07-16 08:22:00,
2013-07-16 01:32:00,58.0,52.0,29.80,South,175,0.0,-999.0,81,-99.99,,,-99.99,,2013-07-16 08:32:00,
2013-07-16 01:43:00,58.0,53.0,29.81,SE,127,0.0,-999.0,82,-99.99,,,-99.99,,2013-07-16 08:43:00,
2013-07-16 01:52:00,58.0,53.0,29.81,SE,127,0.0,-999.0,82,-99.99,,,-99.99,,2013-07-16 08:52:00,
2013-07-16 02:01:00,58.0,53.0,29.81,SE,127,0.0,-999.0,83,-99.99,,,-99.99,,2013-07-16 09:01:00,
2013-07-16 02:12:00,57.0,52.0,29.81,South,176,0.0,-999.0,84,-99.99,,,-99.99,,2013-07-16 09:12:00,
2013-07-16 02:22:00,57.0,52.0,29.81,South,176,0.0,-999.0,84,-99.99,,,-99.99,,2013-07-16 09:22:00,
2013-07-16 02:32:00,57.0,52.0,29.81,South,176,0.0,-999.0,84,-99.99,,,-99.99,,2013-07-16 09:32:00,
2013-07-16 02:42:00,57.0,53.0,29.81,South,176,0.0,-999.0,85,-99.99,,,-99.99,,2013-07-16 09:42:00,
2013-07-16 02:52:00,57.0,53.0,29.81,South,176,0.0,-999.0,85,-99.99,,,-99.99,,2013-07-16 09:52:00,
2013-07-16 03:01:00,57.0,53.0,29.81,South,176,0.0,-999.0,86,-99.99,,,-99.99,,2013-07-16 10:01:00,
2013-07-16 03:11:00,57.0,53.0,29.81,South,176,0.0,-999.0,86,-99.99,,,-99.99,,2013-07-16 10:11:00,
2013-07-16 03:21:00,57.0,53.0,29.81,SSE,153,0.0,-999.0,86,-99.99,,,-99.99,,2013-07-16 10:21:00,
2013-07-16 03:31:00,57.0,53.0,29.81,SSE,153,0.0,-999.0,86,-99.99,,,-99.99,,2013-07-16 10:31:00,
2013-07-16 03:42:00,57.0,53.0,29.81,South,178,0.0,-999.0,87,-99.99,,,-99.99,,2013-07-16 10:42:00,
2013-07-16 03:52:00,57.0,53.0,29.81,South,178,0.0,-999.0,87,-99.99,,,-99.99,,2013-07-16 10:52:00,
2013-07-16 04:01:00,57.0,53.0,29.82,South,178,0.0,-999.0,87,-99.99,,,-99.99,,2013-07-16 11:01:00,
2013-07-16 04:11:00,57.0,53.0,29.82,South,178,0.0,-999.0,87,-99.99,,,-99.99,,2013-07-16 11:11:00,
2013-07-16 04:22:00,57.0,53.0,29.82,South,178,0.0,-999.0,87,-99.99,,,-99.99,,2013-07-16 11:22:00,
2013-07-16 04:32:00,56.0,52.0,29.82,South,178,0.0,-999.0,87,-99.99,,,-99.99,,2013-07-16 11:32:00,
2013-07-16 04:42:00,56.0,52.0,29.82,South,178,0.0,-999.0,87,-99.99,,,-99.99,,2013-07-16 11:42:00,
2013-07-16 04:52:00,56.0,52.0,29.82,South,178,0.0,-999.0,87,-99.99,,,-99.99,,2013-07-16 11:52:00,
2013-07-16 05:01:00,56.0,52.0,29.83,South,178,0.0,-999.0,87,-99.99,,,-99.99,,2013-07-16 12:01:00,
2013-07-16 05:11:00,56.0,52.0,29.83,South,178,0.0,-999.0,87,-99.99,,,-99.99,,2013-07-16 12:11:00,
2013-07-16 05:22:00,56.0,52.0,29.83,South,178,0.0,-999.0,86,-99.99,,,-99.99,,2013-07-16 12:22:00,
2013-07-16 05:32:00,56.0,52.0,29.83,South,178,0.0,-999.0,86,-99.99,,,-99.99,,2013-07-16 12:32:00,
2013-07-16 05:43:00,56.0,52.0,29.84,South,178,0.0,-999.0,86,-99.99,,,-99.99,,2013-07-16 12:43:00,
2013-07-16 05:53:00,56.0,52.0,29.84,South,178,0.0,-999.0,86,-99.99,,,-99.99,,2013-07-16 12:53:00,
2013-07-16 06:01:00,56.0,52.0,29.84,SE,133,0.0,-999.0,87,-99.99,,,-99.99,,2013-07-16 13:01:00,
2013-07-16 06:21:00,56.0,52.0,29.85,SE,132,0.0,-999.0,87,-99.99,,,-99.99,,2013-07-16 13:21:00,
2013-07-16 06:32:00,56.0,52.0,29.85,South,177,0.0,-999.0,87,-99.99,,,-99.99,,2013-07-16 13:32:00,
2013-07-16 06:42:00,56.0,52.0,29.85,South,177,0.0,-999.0,87,-99.99,,,-99.99,,2013-07-16 13:42:00,
2013-07-16 06:52:00,56.0,52.0,29.85,South,173,0.0,-999.0,86,-99.99,,,-99.99,,2013-07-16 13:52:00,
2013-07-16 07:01:00,56.0,52.0,29.86,South,183,0.0,-999.0,86,-99.99,,,-99.99,,2013-07-16 14:01:00,
2013-07-16 07:11:00,56.0,52.0,29.86,South,183,0.0,-999.0,86,-99.99,,,-99.99,,2013-07-16 14:11:00,
2013-07-16 07:32:00,58.0,53.0,29.87,SSE,166,0.0,-999.0,84,-99.99,,,-99.99,,2013-07-16 14:32:00,
2013-07-16 07:42:00,58.0,53.0,29.88,South,180,0.0,-999.0,82,-99.99,,,-99.99,,2013-07-16 14:42:00,
2013-07-16 07:52:00,58.0,53.0,29.88,South,180,0.0,-999.0,82,-99.99,,,-99.99,,2013-07-16 14:52:00,
2013-07-16 08:01:00,59.0,53.0,29.88,South,178,0.0,-999.0,81,-99.99,,,-99.99,,2013-07-16 15:01:00,
2013-07-16 08:11:00,59.0,53.0,29.88,South,178,0.0,-999.0,81,-99.99,,,-99.99,,2013-07-16 15:11:00,
2013-07-16 08:21:00,60.0,53.0,29.89,SSW,193,0.0,-999.0,79,-99.99,,,-99.99,,2013-07-16 15:21:00,
2013-07-16 08:32:00,60.0,53.0,29.89,South,178,0.0,-999.0,79,-99.99,,,-99.99,,2013-07-16 15:32:00,
2013-07-16 08:43:00,61.0,54.0,29.90,South,186,0.0,-999.0,77,-99.99,,,-99.99,,2013-07-16 15:43:00,
2013-07-16 08:52:00,61.0,54.0,29.90,South,186,0.0,-999.0,77,-99.99,,,-99.99,,2013-07-16 15:52:00,
2013-07-16 09:01:00,61.0,53.0,29.90,WNW,295,1.0,-999.0,76,-99.99,,,-99.99,,2013-07-16 16:01:00,
2013-07-16 09:11:00,62.0,54.0,29.91,SW,218,0.0,-999.0,74,-99.99,,,-99.99,,2013-07-16 16:11:00,
2013-07-16 09:21:00,62.0,54.0,29.91,SW,218,0.0,-999.0,74,-99.99,,,-99.99,,2013-07-16 16:21:00,
2013-07-16 09:32:00,63.0,54.0,29.91,West,280,0.0,-999.0,72,-99.99,,,-99.99,,2013-07-16 16:32:00,
2013-07-16 09:43:00,64.0,54.0,29.91,WSW,242,0.0,-999.0,69,-99.99,,,-99.99,,2013-07-16 16:43:00,
2013-07-16 09:52:00,64.0,54.0,29.91,WSW,242,0.0,-999.0,69,-99.99,,,-99.99,,2013-07-16 16:52:00,
2013-07-16 10:02:00,65.0,54.0,29.91,SE,134,1.0,-999.0,67,-99.99,,,-99.99,,2013-07-16 17:02:00,
2013-07-16 10:11:00,65.0,54.0,29.91,SE,134,1.0,-999.0,67,-99.99,,,-99.99,,2013-07-16 17:11:00,
2013-07-16 10:22:00,66.0,54.0,29.91,WNW,284,0.0,-999.0,65,-99.99,,,-99.99,,2013-07-16 17:22:00,
2013-07-16 10:32:00,67.0,54.0,29.91,SW,227,1.0,-999.0,64,-99.99,,,-99.99,,2013-07-16 17:32:00,
2013-07-16 10:43:00,67.0,54.0,29.91,WNW,301,1.0,-999.0,63,-99.99,,,-99.99,,2013-07-16 17:43:00,
2013-07-16 10:53:00,67.0,54.0,29.91,WNW,301,1.0,-999.0,63,-99.99,,,-99.99,,2013-07-16 17:53:00,
2013-07-16 11:01:00,68.0,54.0,29.92,WNW,303,1.0,-999.0,62,-99.99,,,-99.99,,2013-07-16 18:01:00,
2013-07-16 11:11:00,68.0,54.0,29.92,WNW,303,1.0,-999.0,62,-99.99,,,-99.99,,2013-07-16 18:11:00,
2013-07-16 11:22:00,68.0,54.0,29.92,WSW,254,1.0,-999.0,60,-99.99,,,-99.99,,2013-07-16 18:22:00,
2013-07-16 11:43:00,70.0,54.0,29.92,NW,306,1.0,-999.0,57,-99.99,,,-99.99,,2013-07-16 18:43:00,
2013-07-16 11:52:00,70.0,54.0,29.92,NW,306,1.0,-999.0,57,-99.99,,,-99.99,,2013-07-16 18:52:00,
2013-07-16 12:01:00,71.0,55.0,29.92,SSW,202,1.0,-999.0,57,-99.99,,,-99.99,,2013-07-16 19:01:00,
2013-07-16 12:11:00,71.0,55.0,29.92,SSW,202,1.0,-999.0,57,-99.99,,,-99.99,,2013-07-16 19:11:00,
2013-07-16 12:22:00,70.0,54.0,29.93,SW,232,1.0,-999.0,57,-99.99,,,-99.99,,2013-07-16 19:22:00,
2013-07-16 12:32:00,71.0,55.0,29.93,WSW,240,1.0,-999.0,58,-99.99,,,-99.99,,2013-07-16 19:32:00,
2013-07-16 12:43:00,72.0,55.0,29.93,West,263,1.0,-999.0,55,-99.99,,,-99.99,,2013-07-16 19:43:00,
2013-07-16 12:52:00,72.0,55.0,29.93,West,263,1.0,-999.0,55,-99.99,,,-99.99,,2013-07-16 19:52:00,
2013-07-16 13:03:00,72.0,54.0,29.93,West,269,1.0,-999.0,54,-99.99,,,-99.99,,2013-07-16 20:03:00,
2013-07-16 13:11:00,72.0,54.0,29.93,West,269,1.0,-999.0,54,-99.99,,,-99.99,,2013-07-16 20:11:00,
2013-07-16 13:22:00,73.0,55.0,29.93,SSW,194,1.0,-999.0,53,-99.99,,,-99.99,,2013-07-16 20:22:00,
2013-07-16 13:43:00,74.0,55.0,29.93,West,267,1.0,-999.0,52,-99.99,,,-99.99,,2013-07-16 20:43:00,
2013-07-16 13:52:00,74.0,55.0,29.93,West,267,1.0,-999.0,52,-99.99,,,-99.99,,2013-07-16 20:52:00,
2013-07-16 14:11:00,74.0,55.0,29.92,SW,215,1.0,-999.0,51,-99.99,,,-99.99,,2013-07-16 21:11:00,
2013-07-16 14:22:00,75.0,56.0,29.92,West,263,0.0,-999.0,52,-99.99,,,-99.99,,2013-07-16 21:22:00,
2013-07-16 14:43:00,75.0,56.0,29.92,West,264,0.0,-999.0,51,-99.99,,,-99.99,,2013-07-16 21:43:00,
2013-07-16 14:52:00,76.0,56.0,29.92,West,261,1.0,-999.0,50,-99.99,,,-99.99,,2013-07-16 21:52:00,
2013-07-16 15:22:00,76.0,55.0,29.91,SW,221,1.0,-999.0,49,-99.99,,,-99.99,,2013-07-16 22:22:00,
2013-07-16 15:33:00,77.0,56.0,29.91,SW,229,1.0,-999.0,48,-99.99,,,-99.99,,2013-07-16 22:33:00,
2013-07-16 15:43:00,77.0,56.0,29.91,SW,229,1.0,-999.0,48,-99.99,,,-99.99,,2013-07-16 22:43:00,
2013-07-16 15:52:00,77.0,56.0,29.91,SSW,211,0.0,-999.0,48,-99.99,,,-99.99,,2013-07-16 22:52:00,
2013-07-16 16:01:00,77.0,55.0,29.91,SW,214,1.0,-999.0,46,-99.99,,,-99.99,,2013-07-16 23:01:00,
2013-07-16 16:11:00,77.0,55.0,29.91,SW,214,1.0,-999.0,46,-99.99,,,-99.99,,2013-07-16 23:11:00,
2013-07-16 16:22:00,77.0,55.0,29.91,SW,226,1.0,-999.0,47,-99.99,,,-99.99,,2013-07-16 23:22:00,
2013-07-16 16:32:00,78.0,56.0,29.91,SW,232,1.0,-999.0,46,-99.99,,,-99.99,,2013-07-16 23:32:00,
2013-07-16 16:52:00,78.0,55.0,29.90,SW,221,1.0,-999.0,45,-99.99,,,-99.99,,2013-07-16 23:52:00,
2013-07-16 17:01:00,78.0,54.0,29.90,South,179,0.0,-999.0,44,-99.99,,,-99.99,,2013-07-17 00:01:00,
2013-07-16 17:22:00,79.0,56.0,29.89,South,179,1.0,-999.0,46,-99.99,,,-99.99,,2013-07-17 00:22:00,
2013-07-16 17:33:00,79.0,55.0,29.89,SW,229,1.0,-999.0,43,-99.99,,,-99.99,,2013-07-17 00:33:00,
2013-07-16 17:52:00,79.0,55.0,29.88,SSE,165,1.0,-999.0,43,-99.99,,,-99.99,,2013-07-17 00:52:00,
2013-07-16 18:01:00,79.0,55.0,29.88,South,176,0.0,-999.0,43,-99.99,,,-99.99,,2013-07-17 01:01:00,
2013-07-16 18:11:00,79.0,55.0,29.88,South,176,0.0,-999.0,43,-99.99,,,-99.99,,2013-07-17 01:11:00,
2013-07-16 18:22:00,78.0,54.0,29.88,South,187,0.0,-999.0,44,-99.99,,,-99.99,,2013-07-17 01:22:00,
2013-07-16 18:32:00,77.0,55.0,29.88,WSW,238,1.0,-999.0,46,-99.99,,,-99.99,,2013-07-17 01:32:00,
2013-07-16 18:52:00,77.0,55.0,29.89,WSW,240,0.0,-999.0,47,-99.99,,,-99.99,,2013-07-17 01:52:00,
2013-07-16 19:11:00,76.0,55.0,29.89,WSW,239,0.0,-999.0,48,-99.99,,,-99.99,,2013-07-17 02:11:00,
2013-07-16 19:21:00,75.0,56.0,29.89,West,259,1.0,-999.0,51,-99.99,,,-99.99,,2013-07-17 02:21:00,
2013-07-16 19:32:00,74.0,55.0,29.90,WSW,240,0.0,-999.0,52,-99.99,,,-99.99,,2013-07-17 02:32:00,
2013-07-16 19:53:00,74.0,56.0,29.90,SW,226,0.0,-999.0,54,-99.99,,,-99.99,,2013-07-17 02:53:00,
2013-07-16 20:01:00,73.0,56.0,29.90,SW,232,0.0,-999.0,56,-99.99,,,-99.99,,2013-07-17 03:01:00,
2013-07-16 20:11:00,73.0,56.0,29.90,SW,232,0.0,-999.0,56,-99.99,,,-99.99,,2013-07-17 03:11:00,
2013-07-16 20:21:00,72.0,56.0,29.91,South,180,0.0,-999.0,58,-99.99,,,-99.99,,2013-07-17 03:21:00,
2013-07-16 20:43:00,70.0,56.0,29.92,South,177,0.0,-999.0,61,-99.99,,,-99.99,,2013-07-17 03:43:00,
2013-07-16 20:52:00,70.0,56.0,29.92,South,177,0.0,-999.0,61,-99.99,,,-99.99,,2013-07-17 03:52:00,
2013-07-16 21:11:00,68.0,55.0,29.92,SW,220,0.0,-999.0,63,-99.99,,,-99.99,,2013-07-17 04:11:00,
2013-07-16 21:22:00,68.0,56.0,29.93,SSW,207,0.0,-999.0,66,-99.99,,,-99.99,,2013-07-17 04:22:00,
2013-07-16 21:32:00,66.0,55.0,29.93,SE,134,0.0,-999.0,68,-99.99,,,-99.99,,2013-07-17 04:32:00,
2013-07-16 21:43:00,65.0,55.0,29.94,South,173,0.0,-999.0,71,-99.99,,,-99.99,,2013-07-17 04:43:00,
2013-07-16 21:53:00,65.0,55.0,29.94,South,173,0.0,-999.0,71,-99.99,,,-99.99,,2013-07-17 04:53:00,
2013-07-16 22:01:00,64.0,55.0,29.95,South,173,0.0,-999.0,73,-99.99,,,-99.99,,2013-07-17 05:01:00,
2013-07-16 22:11:00,64.0,55.0,29.95,South,173,0.0,-999.0,73,-99.99,,,-99.99,,2013-07-17 05:11:00,
2013-07-16 22:21:00,64.0,56.0,29.95,South,174,0.0,-999.0,74,-99.99,,,-99.99,,2013-07-17 05:21:00,
2013-07-16 22:32:00,63.0,55.0,29.96,South,182,0.0,-999.0,75,-99.99,,,-99.99,,2013-07-17 05:32:00,
2013-07-16 22:52:00,63.0,55.0,29.96,South,182,0.0,-999.0,76,-99.99,,,-99.99,,2013-07-17 05:52:00,
2013-07-16 23:01:00,62.0,55.0,29.96,South,182,0.0,-999.0,78,-99.99,,,-99.99,,2013-07-17 06:01:00,
2013-07-16 23:11:00,62.0,55.0,29.96,South,182,0.0,-999.0,78,-99.99,,,-99.99,,2013-07-17 06:11:00,
2013-07-16 23:22:00,62.0,55.0,29.96,SSE,151,0.0,-999.0,78,-99.99,,,-99.99,,2013-07-17 06:22:00,
2013-07-16 23:32:00,61.0,54.0,29.97,SE,134,0.0,-999.0,79,-99.99,,,-99.99,,2013-07-17 06:32:00,
2013-07-16 23:52:00,61.0,54.0,29.97,SE,134,0.0,-999.0,79,-99.99,,,-99.99,,2013-07-17 06:52:00,